Kalamazoo, MI

11:48 AM EDT on May 26, 2017 (GMT -0400)
Kalamazoo-Battle Creek International

Weather History for KAZO - December, 2013

Change the Weather History Date:

Thursday, December 5, 2013

  Actual Average Record
Temperature  
Mean Temperature 44 °F 32 °F  
Max Temperature 58 °F 38 °F 68 °F (2001)
Min Temperature 29 °F 26 °F 7 °F (1991)
Degree Days  
Heating Degree Days 21 33  
Month to date heating degree days 125 160  
Since 1 July heating degree days 1482 1487  
Cooling Degree Days 0 0  
Month to date cooling degree days 0 0  
Year to date cooling degree days 725 675  
Moisture  
Dew Point 29 °F    
Average Humidity 74    
Maximum Humidity 86    
Minimum Humidity 61    
Precipitation  
Precipitation 0.00 in 0.08 in 0.90 in (1999)
Month to date precipitation 0.10 0.41  
Year to date precipitation 38.07 34.17  
Sea Level Pressure  
Sea Level Pressure 29.92 in    
Wind  
Wind Speed 14 mph (West)    
Max Wind Speed 26 mph    
Max Gust Speed 33 mph    
Visibility 10 miles    
Events      
T = Trace of Precipitation, MM = Missing Value Source: NWS Daily Summary

Daily Weather History Graph

Daily Weather History Graph

Search for Another Location

Airport or City:

Trip Planner

Search our weather history database for the weather conditions in past years. The results will help you decide how hot, cold, wet, or windy it might be!

Date:

Astronomy

Dec. 05, 2013 Rise Set
Actual Time 7:55 AM EST 5:10 PM EST
Civil Twilight 7:24 AM EST 5:41 PM EST
Nautical Twilight 6:49 AM EST 6:16 PM EST
Astronomical Twilight 6:15 AM EST 6:50 PM EST
Moon 10:13 AM EST (12/5) 8:31 PM EST (12/5)
Length of Visible Light 10h 17m
Length of Day
9h 14m
Waxing Crescent, 10% of the Moon is Illuminated
Dec 5
Waxing Crescent
Dec 9
First Quarter
Dec 17
Full
Dec 25
Last Quarter
Jan 1
New

Hourly Weather History & Observations

Time (EST) Temp. Windchill Dew Point Humidity Pressure Visibility Wind Dir Wind Speed Gust Speed Precip Events Conditions
12:48 AM 57.2 °F - 51.8 °F 82% 29.60 in 10.0 mi SW 13.8 mph - N/A   Overcast
12:53 AM 57.9 °F - 51.1 °F 78% 29.61 in 10.0 mi SW 15.0 mph 24.2 mph N/A   Overcast
1:53 AM 57.0 °F - 51.1 °F 81% 29.63 in 9.0 mi WSW 12.7 mph 18.4 mph N/A   Overcast
2:53 AM 48.0 °F - 41.0 °F 77% 29.69 in 10.0 mi West 21.9 mph 29.9 mph N/A   Overcast
3:42 AM 46.4 °F 39.2 °F 37.4 °F 71% 29.70 in 10.0 mi SW 18.4 mph 25.3 mph N/A   Mostly Cloudy
3:53 AM 45.0 °F 37.4 °F 37.0 °F 74% 29.71 in 10.0 mi WSW 18.4 mph 26.5 mph N/A   Scattered Clouds
4:21 AM 44.6 °F 37.4 °F 35.6 °F 71% 29.71 in 10.0 mi WSW 16.1 mph 24.2 mph N/A   Mostly Cloudy
4:53 AM 42.1 °F 34.2 °F 35.1 °F 76% 29.75 in 10.0 mi West 16.1 mph 26.5 mph N/A   Scattered Clouds
5:13 AM 42.8 °F 34.5 °F 33.8 °F 70% 29.74 in 10.0 mi West 18.4 mph 28.8 mph N/A   Mostly Cloudy
5:53 AM 39.0 °F 29.6 °F 32.0 °F 76% 29.80 in 10.0 mi West 18.4 mph 27.6 mph N/A   Overcast
6:53 AM 37.0 °F 27.4 °F 30.9 °F 79% 29.82 in 10.0 mi West 17.3 mph 24.2 mph N/A   Overcast
7:53 AM 36.0 °F 28.5 °F 28.9 °F 76% 29.83 in 10.0 mi WSW 10.4 mph 23.0 mph N/A   Overcast
8:53 AM 35.1 °F 27.4 °F 28.0 °F 76% 29.88 in 10.0 mi West 10.4 mph 18.4 mph N/A   Overcast
9:53 AM 35.1 °F 25.2 °F 27.0 °F 72% 29.91 in 10.0 mi West 16.1 mph 23.0 mph N/A   Overcast
10:53 AM 35.1 °F 24.5 °F 26.1 °F 70% 29.94 in 10.0 mi West 18.4 mph 25.3 mph N/A   Overcast
11:53 AM 34.0 °F 23.8 °F 25.0 °F 70% 29.95 in 10.0 mi West 16.1 mph 25.3 mph N/A   Overcast
12:53 PM 34.0 °F 25.0 °F 24.1 °F 67% 29.96 in 10.0 mi West 12.7 mph 27.6 mph N/A   Overcast
1:53 PM 34.0 °F 24.6 °F 21.9 °F 61% 29.97 in 10.0 mi West 13.8 mph 20.7 mph N/A   Overcast
2:53 PM 33.1 °F 22.6 °F 21.9 °F 64% 30.00 in 10.0 mi West 16.1 mph 23.0 mph N/A   Overcast
3:53 PM 30.9 °F 21.2 °F 21.0 °F 67% 30.04 in 10.0 mi West 12.7 mph 19.6 mph N/A   Mostly Cloudy
4:53 PM 30.0 °F 20.0 °F 19.9 °F 66% 30.08 in 10.0 mi West 12.7 mph - N/A   Mostly Cloudy
5:53 PM 30.0 °F 20.5 °F 19.9 °F 66% 30.08 in 10.0 mi West 11.5 mph - N/A   Mostly Cloudy
6:53 PM 30.0 °F 21.7 °F 19.9 °F 66% 30.11 in 10.0 mi West 9.2 mph - N/A   Overcast
7:53 PM 30.0 °F 20.0 °F 19.9 °F 66% 30.16 in 10.0 mi West 12.7 mph - N/A   Overcast
8:09 PM 30.2 °F 20.2 °F 19.4 °F 64% 30.12 in 10.0 mi West 12.7 mph - N/A   Overcast
8:29 PM 30.2 °F 22.6 °F 19.4 °F 64% 30.10 in 10.0 mi West 8.1 mph - N/A   Overcast
8:53 PM 30.0 °F 21.1 °F 19.0 °F 64% 30.15 in 10.0 mi West 10.4 mph - N/A   Mostly Cloudy
9:53 PM 30.0 °F 21.7 °F 19.9 °F 66% 30.16 in 10.0 mi WNW 9.2 mph - N/A   Overcast
10:53 PM 28.9 °F 21.1 °F 19.0 °F 67% 30.17 in 10.0 mi WNW 8.1 mph - N/A   Overcast
11:53 PM 28.9 °F 19.2 °F 19.0 °F 67% 30.20 in 10.0 mi West 11.5 mph - N/A   Overcast